TimeCEST,TemperatureF,Dew PointF,Humidity,Sea Level PressureIn,VisibilityMPH,Wind Direction,Wind SpeedMPH,Gust SpeedMPH,PrecipitationIn,Events,Conditions,WindDirDegrees,DateUTC
12:00 AM,48.2,44.6,87,29.98,6.2,SSW,3.5,-,N/A,,Mostly Cloudy,210,2013-05-13 22:00:00
1:00 AM,46.4,44.6,93,29.95,6.2,SW,3.5,-,N/A,,Mostly Cloudy,230,2013-05-13 23:00:00
2:00 AM,48.2,44.6,87,29.95,6.2,SW,5.8,-,N/A,,Mostly Cloudy,230,2013-05-14 00:00:00
3:00 AM,48.2,44.6,87,29.92,6.2,SW,5.8,-,N/A,,Mostly Cloudy,230,2013-05-14 01:00:00
4:00 AM,48.2,44.6,87,29.92,6.2,SW,3.5,-,N/A,,Mostly Cloudy,220,2013-05-14 02:00:00
5:00 AM,46.4,42.8,87,29.92,6.2,SW,4.6,-,N/A,,Mostly Cloudy,230,2013-05-14 03:00:00
6:00 AM,48.2,42.8,82,29.92,6.2,SW,4.6,-,N/A,,Mostly Cloudy,230,2013-05-14 04:00:00
7:00 AM,48.2,42.8,82,29.92,6.2,SW,5.8,-,N/A,,Mostly Cloudy,230,2013-05-14 05:00:00
7:30 AM,48.2,42.8,82,29.92,6.2,SW,5.8,-,N/A,,Mostly Cloudy,230,2013-05-14 05:30:00
7:47 AM,48.2,42.8,82,29.92,6.2,SW,4.6,-,N/A,,Mostly Cloudy,230,2013-05-14 05:47:00
8:00 AM,48.2,42.8,82,29.92,6.2,SW,5.8,-,N/A,,Mostly Cloudy,230,2013-05-14 06:00:00
8:30 AM,48.2,42.8,82,29.92,6.2,WSW,4.6,-,N/A,,Scattered Clouds,250,2013-05-14 06:30:00
9:00 AM,50.0,42.8,76,29.92,6.2,WSW,6.9,-,N/A,,Mostly Cloudy,250,2013-05-14 07:00:00
9:30 AM,50.0,42.8,76,29.92,6.2,WSW,6.9,-,N/A,,Mostly Cloudy,250,2013-05-14 07:30:00
10:00 AM,51.8,42.8,71,29.92,6.2,WSW,6.9,-,N/A,,Mostly Cloudy,240,2013-05-14 08:00:00
10:30 AM,51.8,41.0,67,29.92,6.2,West,8.1,-,N/A,,Mostly Cloudy,270,2013-05-14 08:30:00
11:00 AM,51.8,41.0,67,29.92,6.2,West,6.9,-,N/A,,Mostly Cloudy,260,2013-05-14 09:00:00
11:30 AM,53.6,39.2,58,29.92,6.2,WSW,8.1,-,N/A,,Scattered Clouds,240,2013-05-14 09:30:00
12:00 PM,53.6,41.0,62,29.92,6.2,SW,8.1,-,N/A,,Mostly Cloudy,220,2013-05-14 10:00:00
12:30 PM,53.6,39.2,58,29.92,6.2,SW,5.8,-,N/A,,Mostly Cloudy,220,2013-05-14 10:30:00
1:00 PM,55.4,39.2,54,29.92,6.2,SW,6.9,-,N/A,,Partly Cloudy,220,2013-05-14 11:00:00
1:30 PM,55.4,41.0,58,29.92,6.2,SSW,6.9,-,N/A,,Partly Cloudy,200,2013-05-14 11:30:00
2:00 PM,55.4,41.0,58,29.92,6.2,Variable,4.6,-,N/A,,Partly Cloudy,0,2013-05-14 12:00:00
2:30 PM,55.4,39.2,54,29.89,6.2,SSW,4.6,-,N/A,,Partly Cloudy,200,2013-05-14 12:30:00
3:00 PM,59.0,41.0,51,29.89,6.2,SW,5.8,-,N/A,,Scattered Clouds,220,2013-05-14 13:00:00
3:30 PM,55.4,41.0,58,29.89,6.2,South,5.8,-,N/A,,Partly Cloudy,190,2013-05-14 13:30:00
4:00 PM,57.2,41.0,55,29.89,6.2,SSW,8.1,-,N/A,,Partly Cloudy,210,2013-05-14 14:00:00
4:30 PM,57.2,42.8,59,29.89,6.2,South,4.6,-,N/A,,Partly Cloudy,170,2013-05-14 14:30:00
5:00 PM,59.0,42.8,55,29.86,6.2,Variable,3.5,-,N/A,,Scattered Clouds,0,2013-05-14 15:00:00
5:30 PM,59.0,42.8,55,29.86,6.2,South,5.8,-,N/A,,Partly Cloudy,190,2013-05-14 15:30:00
6:00 PM,59.0,42.8,55,29.86,6.2,SSW,4.6,-,N/A,,Scattered Clouds,210,2013-05-14 16:00:00
6:30 PM,57.2,41.0,55,29.86,6.2,SSE,3.5,-,N/A,,Partly Cloudy,150,2013-05-14 16:30:00
7:00 PM,57.2,42.8,59,29.83,6.2,SE,4.6,-,N/A,,Partly Cloudy,130,2013-05-14 17:00:00
7:30 PM,55.4,42.8,63,29.83,-9999.0,Variable,2.3,-,N/A,,Clear,0,2013-05-14 17:30:00
8:00 PM,55.4,42.8,63,29.83,-9999.0,SE,3.5,-,N/A,,Clear,130,2013-05-14 18:00:00
8:30 PM,53.6,44.6,72,29.83,-9999.0,ESE,3.5,-,N/A,,Clear,120,2013-05-14 18:30:00
9:00 PM,50.0,42.8,76,29.83,-9999.0,East,2.3,-,N/A,,Clear,90,2013-05-14 19:00:00
9:30 PM,48.2,42.8,82,29.83,-9999.0,ESE,4.6,-,N/A,,Clear,110,2013-05-14 19:30:00
10:00 PM,48.2,42.8,82,29.83,-9999.0,ESE,3.5,-,N/A,,Clear,110,2013-05-14 20:00:00
11:00 PM,44.6,41.0,87,29.80,-9999.0,ESE,2.3,-,N/A,,Clear,110,2013-05-14 21:00:00